Home > Weather > Sydney > Past weeks

Flag for Australia Weather for the Past 2 Weeks in Sydney, New South Wales, Australia

Now
81 °F

Passing clouds.


Feels Like: 82 °F
Forecast: 66 / 77 °F
Wind: 13 mph from Southeast

Location: Sydney Airport

Current Time: Feb 8, 2016 at 4:00:30 PM

Latest Report: Feb 8, 2016 at 3:00 PM


Visibility: N/A

Pressure: 30.07 "Hg

Humidity: 58%

Dew point: 64 °F

Location of SydneyLocation

Historic Weather in Sydney — Graph

°F

Sydney Temperature Yesterday

Maximum temperature yesterday: 79 °F (at 2:30 PM)
Minimum temperature yesterday: 70 °F (at 5:00 AM)
Average temperature yesterday: 74 °F

High & Low Weather Summary for the Past Weeks

 TemperatureHumidityPressure
High88 °F (Jan 31, 1:00 PM)100% (Jan 30, 5:30 PM)30.09 "Hg (Jan 30, 5:30 PM)
Low61 °F (Feb 2, 6:00 AM)22% (Jan 31, 1:00 PM)29.53 "Hg (Jan 29, 4:00 PM)
Average74 °F73%29.82 "Hg
* Reported Jan 24 2:00 PM — Feb 8 2:00 PM, Sydney, Weather by CustomWeather, © 2016

Note: Actual official high and low records may vary slightly from our data, if they occured in-between our weather recording intervals... More about our weather records

Advertising

Sydney Weather History for the Previous 24 Hours

 ConditionsComfort  
Time TempWeatherWind HumidityBarometerVisibility
2:00 PM
Mon, Feb 8
79 °FPassing clouds.13 mph61%30.07 "HgN/A
1:30 PM79 °FPassing clouds.13 mph61%30.07 "HgN/A
12:30 PM79 °FPassing clouds.10 mph61%30.07 "HgN/A
12:00 PM79 °FPassing clouds.10 mph65%30.09 "HgN/A
11:30 AM77 °FPassing clouds.9 mph61%30.09 "HgN/A
11:00 AM75 °FPassing clouds.10 mph69%30.09 "HgN/A
10:00 AM75 °FPassing clouds.9 mph69%30.09 "HgN/A
9:30 AM73 °FPassing clouds.10 mph78%30.09 "HgN/A
9:00 AM73 °FPassing clouds.7 mph78%30.09 "HgN/A
8:30 AM73 °FPassing clouds.8 mph78%30.09 "HgN/A
8:00 AM72 °FPassing clouds.8 mph78%30.07 "HgN/A
7:00 AM68 °FPassing clouds.8 mph83%30.07 "HgN/A
6:30 AM68 °FPassing clouds.9 mph83%30.07 "HgN/A
6:00 AM66 °FPassing clouds.8 mph88%30.04 "HgN/A
5:30 AM68 °FPassing clouds.8 mph83%30.04 "HgN/A
5:00 AM68 °FClear.7 mph83%30.04 "Hg10 mi
4:30 AM68 °FClear.8 mph88%30.04 "Hg10 mi
4:00 AM68 °FClear.8 mph88%30.04 "Hg10 mi
3:30 AM68 °FClear.9 mph88%30.04 "Hg10 mi
3:00 AM68 °FPassing clouds.8 mph88%30.04 "HgN/A
2:30 AM68 °FClear.7 mph88%30.04 "Hg10 mi
2:00 AM70 °FPassing clouds.6 mph83%30.07 "HgN/A
1:30 AM70 °FPassing clouds.6 mph83%30.07 "HgN/A
1:00 AM70 °FPassing clouds.7 mph83%30.07 "HgN/A
12:30 AM70 °FPassing clouds.7 mph83%30.07 "HgN/A
12:00 AM72 °FPassing clouds.7 mph78%30.07 "HgN/A
11:30 PM
Sun, Feb 7
72 °FPassing clouds.6 mph78%30.07 "HgN/A
11:00 PM73 °FClear.5 mph78%30.07 "Hg10 mi
10:30 PM73 °FPassing clouds.5 mph74%30.07 "HgN/A
10:00 PM73 °FPassing clouds.6 mph69%30.07 "HgN/A
9:30 PM73 °FPassing clouds.6 mph69%30.07 "HgN/A
9:00 PM73 °FPassing clouds.6 mph69%30.04 "HgN/A
8:30 PM73 °FPassing clouds.7 mph69%30.04 "HgN/A
8:00 PM73 °FPassing clouds.8 mph69%30.04 "HgN/A
7:30 PM75 °FPassing clouds.8 mph65%30.04 "HgN/A
7:00 PM75 °FPassing clouds.10 mph65%30.01 "HgN/A
6:30 PM77 °FPassing clouds.9 mph61%30.01 "HgN/A
6:00 PM77 °FPassing clouds.12 mph61%30.01 "HgN/A
5:30 PM79 °FPassing clouds.12 mph58%30.01 "HgN/A
5:00 PM79 °FPassing clouds.13 mph51%30.01 "HgN/A
4:30 PM79 °FPassing clouds.13 mph54%30.01 "HgN/A
4:00 PM79 °FPassing clouds.13 mph54%30.01 "HgN/A
Weather by CustomWeather, © 2016

See weather overviewHow to use our weather pages